KG4AGD Weather Reports


time (UTC)temp
C
wind
direction
speed
KPH
gust
KPH
rain 1hr
cm
rain 24hr
cm
rain mn
cm
humidity
%
barometer
mb
20260510233954 26 33 0.0 0.0 0.00 0.00 0.00 54 1015.5
20260510233452 27 316 1.6 4.8 0.00 0.00 0.00 49 1015.5
20260510232950 27 327 6.4 8.0 0.00 0.00 0.00 46 1015.2
20260510232448 27 329 1.6 1.6 0.00 0.00 0.00 49 1015.2
20260510231946 27 341 3.2 3.2 0.00 0.00 0.00 48 1015.2
20260510231444 27 287 6.4 6.4 0.00 0.00 0.00 45 1015.2
20260510230942 27 269 3.2 4.8 0.00 0.00 0.00 45 1015.2
20260510230440 28 305 9.7 9.7 0.00 0.00 0.00 44 1015.2
20260510225938 27 305 4.8 9.7 0.00 0.00 0.00 46 1015.2
20260510225435 27 278 8.0 9.7 0.00 0.00 0.00 44 1015.2
20260510224933 28 280 9.7 16.1 0.00 0.00 0.00 45 1015.2
20260510224431 28 276 9.7 9.7 0.00 0.00 0.00 45 1015.2
20260510223929 28 265 9.7 11.3 0.00 0.00 0.00 45 1015.2
20260510223427 28 296 6.4 6.4 0.00 0.00 0.00 46 1014.9
20260510222925 28 272 3.2 6.4 0.00 0.00 0.00 43 1015.2
20260510222422 29 295 6.4 6.4 0.00 0.00 0.00 44 1014.9
20260510221920 28 343 6.4 9.7 0.00 0.00 0.00 45 1014.9
20260510221418 29 276 6.4 6.4 0.00 0.00 0.00 46 1014.9
20260510220916 29 307 4.8 6.4 0.00 0.00 0.00 42 1014.9
20260510220414 28 286 4.8 9.7 0.00 0.00 0.00 43 1014.9
20260510215912 28 277 11.3 16.1 0.00 0.00 0.00 44 1014.9
20260510215410 29 280 14.5 16.1 0.00 0.00 0.00 44 1014.9
20260510214908 29 316 8.0 12.9 0.00 0.00 0.00 47 1014.9
20260510214405 29 209 9.7 11.3 0.00 0.00 0.00 45 1014.9
20260510213903 29 243 3.2 8.0 0.00 0.00 0.00 44 1014.9
20260510213401 29 232 3.2 9.7 0.00 0.00 0.00 46 1014.9
20260510212859 29 345 14.5 14.5 0.00 0.00 0.00 46 1014.9
20260510212357 29 333 4.8 8.0 0.00 0.00 0.00 48 1014.9
20260510211855 29 311 3.2 8.0 0.00 0.00 0.00 43 1014.9
20260510211353 30 302 3.2 4.8 0.00 0.00 0.00 46 1014.9
20260510210851 29 233 8.0 12.9 0.00 0.00 0.00 44 1014.9
20260510210349 29 177 8.0 9.7 0.00 0.00 0.00 45 1014.9
20260510205847 29 245 6.4 9.7 0.00 0.00 0.00 46 1014.9
20260510205344 29 270 12.9 12.9 0.00 0.00 0.00 44 1014.9
20260510204842 30 308 11.3 16.1 0.00 0.00 0.00 44 1014.9
20260510204340 29 281 12.9 16.1 0.00 0.00 0.00 46 1014.9
20260510203838 30 244 4.8 6.4 0.00 0.00 0.00 43 1014.9
20260510203336 30 217 4.8 4.8 0.00 0.00 0.00 41 1014.9
20260510202834 30 227 4.8 9.7 0.00 0.00 0.00 43 1014.9
20260510202331 30 310 8.0 14.5 0.00 0.00 0.00 42 1014.9
20260510201829 30 283 9.7 14.5 0.00 0.00 0.00 44 1014.9
20260510201326 30 278 4.8 6.4 0.00 0.00 0.00 42 1014.9
20260510200824 29 323 3.2 6.4 0.00 0.00 0.00 42 1014.9
20260510200322 30 28 6.4 8.0 0.00 0.00 0.00 40 1014.9
20260510195820 30 238 8.0 12.9 0.00 0.00 0.00 42 1015.2
20260510195318 30 234 6.4 11.3 0.00 0.00 0.00 43 1014.9
20260510194815 30 275 14.5 16.1 0.00 0.00 0.00 45 1014.9
20260510194313 29 254 0.0 1.6 0.00 0.00 0.00 47 1015.2
20260510193811 30 283 9.7 11.3 0.00 0.00 0.00 44 1015.2
20260510193308 30 359 6.4 11.3 0.00 0.00 0.00 44 1015.2
20260510192805 30 320 6.4 9.7 0.00 0.00 0.00 46 1015.2
20260510192306 30 20 3.2 3.2 0.00 0.00 0.00 49 1015.2
20260510191800 29 250 3.2 3.2 0.00 0.00 0.00 49 1015.2
20260510191258 30 221 4.8 8.0 0.00 0.00 0.00 48 1015.5
20260510190756 29 267 4.8 4.8 0.00 0.00 0.00 50 1015.5
20260510190254 28 277 9.7 9.7 0.00 0.00 0.00 51 1015.5
20260510185751 28 250 4.8 4.8 0.00 0.00 0.00 51 1015.5
20260510185249 29 325 4.8 4.8 0.00 0.00 0.00 50 1015.5
20260510184745 30 107 4.8 4.8 0.00 0.00 0.00 51 1015.5
20260510184243 30 236 9.7 9.7 0.00 0.00 0.00 50 1015.5
20260510183739 30 265 6.4 6.4 0.00 0.00 0.00 51 1015.9
20260510183237 28 177 0.0 0.0 0.00 0.00 0.00 50 1015.9
20260510182735 29 225 8.0 8.0 0.00 0.00 0.00 52 1015.5
20260510182232 29 21 1.6 14.5 0.00 0.00 0.00 50 1015.9
20260510181731 28 347 6.4 14.5 0.00 0.00 0.00 51 1015.9
20260510181228 30 282 9.7 11.3 0.00 0.00 0.00 54 1015.9
20260510180726 29 211 6.4 11.3 0.00 0.00 0.00 50 1015.9
20260510180224 29 244 9.7 11.3 0.00 0.00 0.00 54 1015.9
20260510175721 30 198 4.8 12.9 0.00 0.00 0.00 55 1015.9
20260510175220 28 121 1.6 9.7 0.00 0.00 0.00 51 1015.9
20260510174717 29 250 3.2 12.9 0.00 0.00 0.00 51 1015.9
20260510174215 29 16 4.8 9.7 0.00 0.00 0.00 52 1015.9
20260510173713 29 284 9.7 12.9 0.00 0.00 0.00 51 1015.9
20260510173211 30 329 6.4 9.7 0.00 0.00 0.00 51 1015.9
20260510172708 29 194 3.2 12.9 0.00 0.00 0.00 59 1015.9
20260510172206 29 294 4.8 9.7 0.00 0.00 0.00 54 1016.2
20260510171704 27 281 3.2 11.3 0.00 0.00 0.00 53 1016.2
20260510171202 27 280 4.8 8.0 0.00 0.00 0.00 57 1016.2
20260510170700 28 67 6.4 9.7 0.00 0.00 0.00 52 1016.2
20260510170157 30 352 4.8 11.3 0.00 0.00 0.00 52 1016.2
20260510165655 29 330 9.7 16.1 0.00 0.00 0.00 59 1016.2
20260510165153 28 252 0.0 3.2 0.00 0.00 0.00 56 1016.2
20260510164651 27 119 4.8 6.4 0.00 0.00 0.00 59 1016.2
20260510164149 27 82 8.0 8.0 0.00 0.00 0.00 59 1016.2
20260510163647 26 350 0.0 4.8 0.00 0.00 0.00 59 1016.2
20260510163145 27 258 8.0 8.0 0.00 0.00 0.00 59 1016.2
20260510162643 27 345 6.4 11.3 0.00 0.00 0.00 60 1016.2
20260510162140 27 356 4.8 4.8 0.00 0.00 0.00 57 1016.5
20260510161638 27 31 0.0 6.4 0.00 0.00 0.00 58 1016.2
20260510161135 28 180 4.8 6.4 0.00 0.00 0.00 59 1016.5
20260510160633 28 180 3.2 8.0 0.00 0.00 0.00 60 1016.5
20260510160131 27 187 3.2 6.4 0.00 0.00 0.00 64 1016.5
20260510155629 27 212 8.0 9.7 0.00 0.00 0.00 62 1016.5
20260510155126 27 354 1.6 4.8 0.00 0.00 0.00 60 1016.5
20260510154624 27 263 4.8 9.7 0.00 0.00 0.00 61 1016.5
20260510154121 27 254 6.4 9.7 0.00 0.00 0.00 59 1016.5
20260510153619 27 326 6.4 9.7 0.00 0.00 0.00 61 1016.5
20260510153117 27 30 3.2 6.4 0.00 0.00 0.00 64 1016.5
20260510152615 26 99 6.4 6.4 0.00 0.00 0.00 64 1016.5
20260510152113 26 21 0.0 8.0 0.00 0.00 0.00 65 1016.5
20260510151611 26 99 1.6 9.7 0.00 0.00 0.00 64 1016.5
20260510151108 26 140 3.2 9.7 0.00 0.00 0.00 65 1016.5
20260510150606 26 23 3.2 6.4 0.00 0.00 0.00 67 1016.5
20260510150104 26 285 4.8 6.4 0.00 0.00 0.00 67 1016.5
20260510145601 26 185 4.8 6.4 0.00 0.00 0.00 72 1016.5
20260510145059 26 229 1.6 6.4 0.00 0.00 0.00 67 1016.5
20260510144556 25 113 0.0 4.8 0.00 0.00 0.00 69 1016.5
20260510144054 25 227 4.8 8.0 0.00 0.00 0.00 69 1016.5
20260510143552 25 242 1.6 11.3 0.00 0.00 0.00 72 1016.5
20260510143050 25 331 8.0 11.3 0.00 0.00 0.00 72 1016.5
20260510142547 25 231 1.6 4.8 0.00 0.00 0.00 75 1016.5
20260510142045 25 296 6.4 8.0 0.00 0.00 0.00 75 1016.5
20260510141543 25 292 8.0 9.7 0.00 0.00 0.00 78 1016.5
20260510141041 24 249 3.2 12.9 0.00 0.00 0.00 74 1016.5
20260510140539 24 290 8.0 11.3 0.00 0.00 0.00 77 1016.5
20260510140037 23 7 4.8 11.3 0.00 0.00 0.00 77 1016.5
20260510135535 23 181 3.2 9.7 0.00 0.00 0.00 77 1016.5
20260510135033 23 295 9.7 11.3 0.00 0.00 0.00 79 1016.5
20260510134531 23 328 9.7 9.7 0.00 0.00 0.00 83 1016.5
20260510134028 23 306 4.8 9.7 0.00 0.00 0.00 83 1016.5
20260510133526 22 304 4.8 8.0 0.00 0.00 0.00 82 1016.2
20260510133024 22 236 8.0 9.7 0.00 0.00 0.00 85 1016.2
20260510132522 22 323 3.2 9.7 0.00 0.00 0.00 85 1016.2
20260510132020 22 231 6.4 6.4 0.00 0.00 0.00 84 1016.2
20260510131518 22 289 9.7 11.3 0.00 0.00 0.00 86 1016.5
20260510131016 21 281 4.8 8.0 0.00 0.00 0.00 86 1016.2
20260510130513 21 232 3.2 8.0 0.00 0.00 0.00 87 1016.2
20260510130011 21 209 3.2 6.4 0.00 0.00 0.00 90 1016.2
20260510125509 21 261 3.2 11.3 0.00 0.00 0.00 88 1016.2
20260510125007 20 280 4.8 9.7 0.00 0.00 0.00 89 1016.2
20260510124504 20 229 6.4 6.4 0.00 0.00 0.00 91 1016.2
20260510123958 20 234 6.4 8.0 0.00 0.00 0.00 91 1016.2
20260510123456 20 234 4.8 8.0 0.00 0.00 0.00 91 1016.2
20260510122954 20 269 6.4 8.0 0.00 0.00 0.00 93 1016.2
20260510121850 19 292 3.2 4.8 0.00 0.00 0.00 94 1016.2
20260510121348 18 200 0.0 4.8 0.00 0.00 0.00 97 1016.2
20260510120846 18 184 0.0 3.2 0.00 0.00 0.00 98 1015.9
20260510120243 18 266 0.0 0.0 0.00 0.00 0.00 99 1015.9
20260510115741 17 248 0.0 0.0 0.00 0.00 0.00 100 1015.9
20260510115239 17 191 0.0 0.0 0.00 0.00 0.00 100 1015.9
20260510114736 17 184 0.0 0.0 0.00 0.00 0.00 100 1015.9
20260510113632 17 296 0.0 4.8 0.00 0.00 0.00 100 1015.5
20260510113130 17 277 0.0 4.8 0.00 0.00 0.00 100 1015.5
20260510111926 16 204 0.0 0.0 0.00 0.00 0.00 100 1015.5
20260510111423 16 167 0.0 0.0 0.00 0.00 0.00 100 1015.2
20260510110921 16 172 0.0 0.0 0.00 0.00 0.00 100 1015.2
20260510105817 16 341 0.0 0.0 0.00 0.00 0.00 100 1014.9
20260510104712 16 142 0.0 0.0 0.00 0.00 0.00 100 1014.9
20260510104210 16 163 0.0 0.0 0.00 0.00 0.00 100 1014.9
20260510103708 16 213 0.0 0.0 0.00 0.00 0.00 100 1014.9
20260510103206 16 266 0.0 0.0 0.00 0.00 0.00 100 1014.9
20260510102704 16 139 0.0 1.6 0.00 0.00 0.00 100 1014.9
20260510102101 16 318 0.0 0.0 0.00 0.00 0.00 100 1014.5
20260510101559 16 149 0.0 0.0 0.00 0.00 0.00 100 1014.5
20260510101056 16 172 0.0 0.0 0.00 0.00 0.00 100 1014.5
20260510100555 16 218 0.0 0.0 0.00 0.00 0.00 100 1014.5
20260510100052 16 114 0.0 0.0 0.00 0.00 0.00 100 1014.2
20260510095550 16 141 0.0 0.0 0.00 0.00 0.00 100 1014.2
20260510094446 16 278 0.0 0.0 0.00 0.00 0.00 100 1014.2
20260510093843 16 207 0.0 0.0 0.00 0.00 0.00 100 1014.2
20260510093341 16 171 0.0 0.0 0.00 0.00 0.00 100 1014.2
20260510092839 16 168 0.0 0.0 0.00 0.00 0.00 100 1013.8
20260510092337 16 207 1.6 1.6 0.00 0.00 0.00 100 1014.2
20260510091735 16 166 0.0 0.0 0.00 0.00 0.00 100 1013.8
20260510091232 16 198 0.0 0.0 0.00 0.00 0.00 100 1013.8
20260510090730 16 294 0.0 0.0 0.00 0.00 0.00 100 1013.8
20260510090228 16 296 0.0 0.0 0.00 0.00 0.00 100 1013.8
20260510085726 16 243 0.0 0.0 0.00 0.00 0.00 100 1013.8
20260510085224 16 257 0.0 0.0 0.00 0.00 0.00 100 1013.8
20260510084621 16 174 0.0 0.0 0.00 0.00 0.00 100 1013.8
20260510084119 16 187 0.0 0.0 0.00 0.00 0.00 100 1013.5
20260510083518 16 172 0.0 0.0 0.00 0.00 0.00 100 1013.5
20260510083015 16 169 0.0 0.0 0.00 0.00 0.00 100 1013.5
20260510082513 16 184 0.0 0.0 0.00 0.00 0.00 100 1013.5
20260510082010 16 159 0.0 1.6 0.00 0.00 0.00 100 1013.5
20260510081408 16 171 1.6 3.2 0.00 0.00 0.00 100 1013.5
20260510080906 16 163 0.0 3.2 0.00 0.00 0.00 100 1013.5
20260510080404 16 156 0.0 1.6 0.00 0.00 0.00 100 1013.5
20260510075901 16 161 0.0 0.0 0.00 0.00 0.00 100 1013.5
20260510074755 16 158 0.0 0.0 0.00 0.00 0.00 100 1013.5
20260510074253 16 158 0.0 0.0 0.00 0.00 0.00 100 1013.5
20260510073751 16 156 0.0 0.0 0.00 0.00 0.00 100 1013.5
20260510073249 15 160 0.0 0.0 0.00 0.00 0.00 100 1013.2
20260510072747 16 56 0.0 0.0 0.00 0.00 0.00 100 1013.2
20260510072244 16 124 0.0 0.0 0.00 0.00 0.00 100 1013.2
20260510071742 16 146 0.0 0.0 0.00 0.00 0.00 100 1013.2
20260510071240 16 139 0.0 0.0 0.00 0.00 0.00 100 1013.2
20260510070738 16 38 0.0 0.0 0.00 0.00 0.00 100 1013.2
20260510065624 16 86 0.0 0.0 0.00 0.00 0.00 100 1013.2
20260510064505 16 352 0.0 0.0 0.00 0.00 0.00 100 1013.5
20260510063359 16 163 0.0 0.0 0.00 0.00 0.00 100 1013.2
20260510062857 16 187 0.0 0.0 0.00 0.00 0.00 100 1013.2
20260510062355 16 160 0.0 0.0 0.00 0.00 0.00 100 1013.2
20260510061853 16 155 0.0 0.0 0.00 0.00 0.00 100 1013.2
20260510061350 16 78 0.0 0.0 0.00 0.00 0.00 100 1013.2
20260510060848 16 84 0.0 0.0 0.00 0.00 0.00 100 1013.2
20260510060346 16 17 0.0 0.0 0.00 0.00 0.00 100 1013.2
20260510055843 16 64 0.0 0.0 0.00 0.00 0.00 100 1013.2
20260510055341 16 103 0.0 0.0 0.00 0.00 0.00 100 1013.5
20260510054839 16 103 0.0 0.0 0.00 0.00 0.00 99 1013.5
20260510053132 16 153 0.0 0.0 0.00 0.00 0.00 99 1013.5
20260510052630 16 166 0.0 0.0 0.00 0.00 0.00 99 1013.5
20260510052128 16 92 0.0 0.0 0.00 0.00 0.00 98 1013.5
20260510051626 17 51 0.0 0.0 0.00 0.00 0.00 97 1013.5
20260510051123 17 20 0.0 0.0 0.00 0.00 0.00 97 1013.5
20260510050621 17 2 0.0 0.0 0.00 0.00 0.00 97 1013.5
20260510050119 17 94 0.0 0.0 0.00 0.00 0.00 97 1013.8
20260510045617 17 205 0.0 0.0 0.00 0.00 0.00 95 1013.8
20260510045115 17 194 0.0 0.0 0.00 0.00 0.00 94 1013.8
20260510044613 17 287 0.0 0.0 0.00 0.00 0.00 94 1013.8
20260510043508 18 194 0.0 0.0 0.00 0.00 0.00 94 1013.8
20260510042905 18 175 0.0 0.0 0.00 0.00 0.00 94 1013.8
20260510042403 18 187 0.0 0.0 0.00 0.00 0.00 94 1013.8
20260510041901 18 210 3.2 3.2 0.00 0.00 0.00 94 1013.8
20260510041359 18 235 0.0 0.0 0.00 0.00 0.00 94 1013.8
20260510040857 18 170 0.0 0.0 0.00 0.00 0.00 94 1013.8
20260510035753 18 189 0.0 0.0 0.00 0.00 0.08 95 1013.8
20260510035251 18 196 6.4 6.4 0.00 0.00 0.08 96 1013.8
20260510034749 17 206 0.0 0.0 0.00 0.00 0.08 97 1013.5
20260510034247 17 206 3.2 3.2 0.00 0.00 0.08 98 1013.5
20260510033745 17 189 3.2 3.2 0.00 0.00 0.08 99 1013.5
20260510033243 17 199 0.0 0.0 0.00 0.00 0.08 100 1013.5
20260510032740 17 222 0.0 0.0 0.00 0.00 0.08 100 1013.5
20260510032238 17 225 1.6 1.6 0.00 0.00 0.08 100 1013.5
20260510031736 17 164 0.0 0.0 0.00 0.00 0.08 100 1013.5
20260510031233 17 170 0.0 1.6 0.00 0.00 0.08 100 1013.5
20260510030731 17 171 0.0 1.6 0.00 0.00 0.08 100 1013.5
20260510030229 17 176 0.0 0.0 0.00 0.00 0.08 100 1013.5
20260510025726 17 201 0.0 4.8 0.00 0.00 0.08 100 1013.2
20260510025224 17 185 0.0 0.0 0.00 0.00 0.08 99 1013.5
20260510024722 17 177 0.0 0.0 0.00 0.00 0.08 99 1013.2
20260510024220 17 164 0.0 0.0 0.00 0.00 0.08 99 1013.2
20260510023617 17 174 0.0 0.0 0.00 0.00 0.08 99 1013.2
20260510023115 17 192 0.0 0.0 0.00 0.00 0.08 99 1013.2
20260510021408 17 178 0.0 0.0 0.00 0.00 0.08 99 1012.8
20260510020906 17 168 0.0 0.0 0.00 0.00 0.08 99 1013.2
20260510020404 17 182 0.0 0.0 0.00 0.00 0.08 98 1012.8
20260510015902 17 138 0.0 0.0 0.00 0.00 0.08 97 1012.8
20260510015259 17 146 0.0 0.0 0.00 0.00 0.08 97 1012.8
20260510014757 17 158 0.0 0.0 0.00 0.00 0.08 97 1012.8
20260510014255 18 69 0.0 0.0 0.00 0.00 0.08 96 1012.8
20260510013753 18 60 0.0 0.0 0.00 0.00 0.08 96 1012.8
20260510012648 18 93 0.0 0.0 0.00 0.00 0.08 96 1012.5
20260510012146 18 102 0.0 0.0 0.00 0.00 0.08 95 1012.5
20260510011644 18 130 0.0 0.0 0.00 0.00 0.08 93 1012.5
20260510011142 18 131 0.0 0.0 0.00 0.00 0.08 93 1012.5
20260510010640 18 131 0.0 0.0 0.00 0.00 0.08 93 1012.1
20260510010037 19 159 0.0 0.0 0.00 0.00 0.08 92 1012.5
20260510005535 19 171 0.0 0.0 0.00 0.00 0.08 92 1012.5
20260510005033 19 168 0.0 0.0 0.00 0.00 0.08 92 1012.5
20260510004531 20 179 0.0 0.0 0.00 0.00 0.08 90 1012.1
20260510003928 20 165 0.0 0.0 0.00 0.00 0.08 90 1012.1
20260510003426 20 178 0.0 0.0 0.00 0.00 0.08 89 1012.1
20260510002924 20 169 0.0 0.0 0.00 0.00 0.08 88 1012.1
20260510002422 21 126 0.0 0.0 0.00 0.00 0.08 88 1012.1
20260510001920 21 158 0.0 0.0 0.00 0.00 0.08 85 1012.1
20260510001418 21 154 0.0 0.0 0.00 0.00 0.08 84 1012.1
20260510000915 21 190 0.0 0.0 0.00 0.00 0.08 83 1012.1
20260510000413 22 159 1.6 3.2 0.00 0.00 0.08 82 1011.8
20260509235911 22 192 0.0 3.2 0.00 0.00 0.08 81 1011.8
20260509235409 22 187 0.0 6.4 0.00 0.00 0.08 81 1011.8
20260509234906 22 233 4.8 6.4 0.00 0.00 0.08 80 1011.8